Tracking 19638 objects as of 20-Apr-2019
HD Live streaming from Space Station
objects crossing your sky now

COSMOS 1304

Track COSMOS 1304 now!
10-day predictions
COSMOS 1304 is classified as:


NORAD ID: 12803
Int'l Code: 1981-087A
Perigee: 910.1 km
Apogee: 979.1 km
Inclination: 82.9 °
Period: 103.8 minutes
Semi major axis: 7315 km
RCS: 1.592 m2 (large)
Launch date: September 4, 1981
Source: Commonwealth of Independent States (former USSR) (CIS)
Launch site: PLESETSK MISSILE AND SPACE COMPLEX (PKMTR)
aabbcc
Your satellite tracking list
Your tracking list is empty




NASA's NSSDC Master Catalog

Two Line Element Set (TLE):
1 12803U 81087A   19109.79488763  .00000025  00000-0  73062-5 0  9990
2 12803  82.9372 225.4304 0047210 114.6424 245.9667 13.87481850280456
Source of the keplerian elements: AFSPC